Year,Month,Day,Hour,Minute,Value (Times are PST for temperature in C)
2008,07,13,00,00,18.40
2008,07,13,00,01,18.40
2008,07,13,00,02,18.40
2008,07,13,00,03,18.40
2008,07,13,00,04,18.40
2008,07,13,00,05,18.40
2008,07,13,00,06,18.40
2008,07,13,00,07,18.40
2008,07,13,00,08,18.40
2008,07,13,00,09,18.40
2008,07,13,00,10,18.40
2008,07,13,00,11,18.40
2008,07,13,00,12,18.40
2008,07,13,00,13,18.40
2008,07,13,00,14,18.40
2008,07,13,00,15,18.40
2008,07,13,00,16,18.40
2008,07,13,00,17,18.30
2008,07,13,00,18,18.30
2008,07,13,00,19,18.30
2008,07,13,00,20,18.30
2008,07,13,00,21,18.30
2008,07,13,00,22,18.30
2008,07,13,00,23,18.20
2008,07,13,00,24,18.20
2008,07,13,00,25,18.20
2008,07,13,00,26,18.20
2008,07,13,00,27,18.10
2008,07,13,00,28,18.10
2008,07,13,00,29,18.10
2008,07,13,00,30,18.00
2008,07,13,00,31,18.10
2008,07,13,00,32,18.00
2008,07,13,00,33,18.00
2008,07,13,00,34,18.00
2008,07,13,00,35,18.10
2008,07,13,00,36,18.10
2008,07,13,00,37,18.10
2008,07,13,00,38,18.10
2008,07,13,00,39,18.10
2008,07,13,00,40,18.10
2008,07,13,00,41,18.10
2008,07,13,00,42,18.10
2008,07,13,00,43,18.10
2008,07,13,00,44,18.00
2008,07,13,00,45,18.00
2008,07,13,00,46,18.00
2008,07,13,00,47,18.00
2008,07,13,00,48,17.90
2008,07,13,00,49,17.90
2008,07,13,00,50,17.90
2008,07,13,00,51,17.90
2008,07,13,00,52,17.90
2008,07,13,00,53,17.90
2008,07,13,00,54,17.90
2008,07,13,00,55,17.90
2008,07,13,00,56,17.90
2008,07,13,00,57,17.90
2008,07,13,00,58,17.90
2008,07,13,00,59,17.90
2008,07,13,01,00,17.90
2008,07,13,01,01,17.90
2008,07,13,01,02,17.90
2008,07,13,01,03,17.90
2008,07,13,01,04,17.80
2008,07,13,01,05,17.80
2008,07,13,01,06,17.80
2008,07,13,01,07,17.80
2008,07,13,01,08,17.70
2008,07,13,01,09,17.70
2008,07,13,01,10,17.70
2008,07,13,01,11,17.70
2008,07,13,01,12,17.60
2008,07,13,01,13,17.60
2008,07,13,01,14,17.60
2008,07,13,01,15,17.60
2008,07,13,01,16,17.60
2008,07,13,01,17,17.50
2008,07,13,01,18,17.50
2008,07,13,01,19,17.60
2008,07,13,01,20,17.60
2008,07,13,01,21,17.60
2008,07,13,01,22,17.60
2008,07,13,01,23,17.50
2008,07,13,01,24,17.50
2008,07,13,01,25,17.50
2008,07,13,01,26,17.50
2008,07,13,01,27,17.50
2008,07,13,01,28,17.40
2008,07,13,01,29,17.40
2008,07,13,01,30,17.40
2008,07,13,01,31,17.40
2008,07,13,01,32,17.40
2008,07,13,01,33,17.40
2008,07,13,01,34,17.40
2008,07,13,01,35,17.40
2008,07,13,01,36,17.40
2008,07,13,01,37,17.40
2008,07,13,01,38,17.40
2008,07,13,01,39,17.40
2008,07,13,01,40,17.40
2008,07,13,01,41,17.40
2008,07,13,01,42,17.40
2008,07,13,01,43,17.40
2008,07,13,01,44,17.30
2008,07,13,01,45,17.30
2008,07,13,01,46,17.30
2008,07,13,01,47,17.30
2008,07,13,01,48,17.30
2008,07,13,01,49,17.30
2008,07,13,01,50,17.30
2008,07,13,01,51,17.30
2008,07,13,01,52,17.30
2008,07,13,01,53,17.30
2008,07,13,01,54,17.30
2008,07,13,01,55,17.30
2008,07,13,01,56,17.30
2008,07,13,01,57,17.30
2008,07,13,01,58,17.30
2008,07,13,01,59,17.30
2008,07,13,02,00,17.30
2008,07,13,02,01,17.30
2008,07,13,02,02,17.30
2008,07,13,02,03,17.30
2008,07,13,02,04,17.30
2008,07,13,02,05,17.30
2008,07,13,02,06,17.30
2008,07,13,02,07,17.30
2008,07,13,02,08,17.30
2008,07,13,02,09,17.30
2008,07,13,02,10,17.30
2008,07,13,02,11,17.30
2008,07,13,02,12,17.30
2008,07,13,02,13,17.30
2008,07,13,02,14,17.30
2008,07,13,02,15,17.30
2008,07,13,02,16,17.30
2008,07,13,02,17,17.30
2008,07,13,02,18,17.20
2008,07,13,02,19,17.20
2008,07,13,02,20,17.20
2008,07,13,02,21,17.20
2008,07,13,02,22,17.20
2008,07,13,02,23,17.20
2008,07,13,02,24,17.10
2008,07,13,02,25,17.10
2008,07,13,02,26,17.10
2008,07,13,02,27,17.10
2008,07,13,02,28,17.00
2008,07,13,02,29,17.00
2008,07,13,02,30,17.00
2008,07,13,02,31,16.90
2008,07,13,02,32,16.90
2008,07,13,02,33,16.90
2008,07,13,02,34,16.90
2008,07,13,02,35,16.90
2008,07,13,02,36,16.80
2008,07,13,02,37,16.80
2008,07,13,02,38,16.80
2008,07,13,02,39,16.80
2008,07,13,02,40,16.80
2008,07,13,02,41,16.70
2008,07,13,02,42,16.70
2008,07,13,02,43,16.70
2008,07,13,02,44,16.70
2008,07,13,02,45,16.70
2008,07,13,02,46,16.70
2008,07,13,02,47,16.70
2008,07,13,02,48,16.70
2008,07,13,02,49,16.70
2008,07,13,02,50,16.70
2008,07,13,02,51,16.70
2008,07,13,02,52,16.70
2008,07,13,02,53,16.70
2008,07,13,02,54,16.70
2008,07,13,02,55,16.70
2008,07,13,02,56,16.70
2008,07,13,02,57,16.70
2008,07,13,02,58,16.60
2008,07,13,02,59,16.60
2008,07,13,03,00,16.60
2008,07,13,03,01,16.60
2008,07,13,03,02,16.50
2008,07,13,03,03,16.50
2008,07,13,03,04,16.50
2008,07,13,03,05,16.50
2008,07,13,03,06,16.60
2008,07,13,03,07,16.60
2008,07,13,03,08,16.60
2008,07,13,03,09,16.60
2008,07,13,03,10,16.60
2008,07,13,03,11,16.70
2008,07,13,03,12,16.60
2008,07,13,03,13,16.60
2008,07,13,03,14,16.60
2008,07,13,03,15,16.60
2008,07,13,03,16,16.60
2008,07,13,03,17,16.60
2008,07,13,03,18,16.50
2008,07,13,03,19,16.50
2008,07,13,03,20,16.50
2008,07,13,03,21,16.50
2008,07,13,03,22,16.50
2008,07,13,03,23,16.50
2008,07,13,03,24,16.50
2008,07,13,03,25,16.50
2008,07,13,03,26,16.50
2008,07,13,03,27,16.50
2008,07,13,03,28,16.50
2008,07,13,03,29,16.50
2008,07,13,03,30,16.40
2008,07,13,03,31,16.40
2008,07,13,03,32,16.40
2008,07,13,03,33,16.40
2008,07,13,03,34,16.30
2008,07,13,03,35,16.30
2008,07,13,03,36,16.30
2008,07,13,03,37,16.30
2008,07,13,03,38,16.20
2008,07,13,03,39,16.30
2008,07,13,03,40,16.20
2008,07,13,03,41,16.20
2008,07,13,03,42,16.20
2008,07,13,03,43,16.20
2008,07,13,03,44,16.20
2008,07,13,03,45,16.20
2008,07,13,03,46,16.20
2008,07,13,03,47,16.20
2008,07,13,03,48,16.20
2008,07,13,03,49,16.20
2008,07,13,03,50,16.20
2008,07,13,03,51,16.20
2008,07,13,03,52,16.20
2008,07,13,03,53,16.20
2008,07,13,03,54,16.20
2008,07,13,03,55,16.20
2008,07,13,03,56,16.20
2008,07,13,03,57,16.20
2008,07,13,03,58,16.20
2008,07,13,03,59,16.20
2008,07,13,04,00,16.20
2008,07,13,04,01,16.30
2008,07,13,04,02,16.30
2008,07,13,04,03,16.30
2008,07,13,04,04,16.30
2008,07,13,04,05,16.30
2008,07,13,04,06,16.30
2008,07,13,04,07,16.30
2008,07,13,04,08,16.30
2008,07,13,04,09,16.30
2008,07,13,04,10,16.30
2008,07,13,04,11,16.40
2008,07,13,04,12,16.40
2008,07,13,04,13,16.40
2008,07,13,04,14,16.30
2008,07,13,04,15,16.30
2008,07,13,04,16,16.30
2008,07,13,04,17,16.30
2008,07,13,04,18,16.30
2008,07,13,04,19,16.30
2008,07,13,04,20,16.20
2008,07,13,04,21,16.20
2008,07,13,04,22,16.20
2008,07,13,04,23,16.20
2008,07,13,04,24,16.20
2008,07,13,04,25,16.10
2008,07,13,04,26,16.10
2008,07,13,04,27,16.00
2008,07,13,04,28,16.00
2008,07,13,04,29,15.90
2008,07,13,04,30,15.90
2008,07,13,04,31,15.80
2008,07,13,04,32,15.80
2008,07,13,04,33,15.70
2008,07,13,04,34,15.70
2008,07,13,04,35,15.70
2008,07,13,04,36,15.60
2008,07,13,04,37,15.60
2008,07,13,04,38,15.60
2008,07,13,04,39,15.70
2008,07,13,04,40,15.70
2008,07,13,04,41,15.70
2008,07,13,04,42,15.70
2008,07,13,04,43,15.80
2008,07,13,04,44,15.80
2008,07,13,04,45,15.80
2008,07,13,04,46,15.80
2008,07,13,04,47,15.90
2008,07,13,04,48,15.90
2008,07,13,04,49,16.00
2008,07,13,04,50,16.00
2008,07,13,04,51,16.00
2008,07,13,04,52,16.10
2008,07,13,04,53,16.10
2008,07,13,04,54,16.10
2008,07,13,04,55,16.10
2008,07,13,04,56,16.10
2008,07,13,04,57,16.10
2008,07,13,04,58,16.10
2008,07,13,04,59,16.10
2008,07,13,05,00,16.10
2008,07,13,05,01,16.10
2008,07,13,05,02,16.10
2008,07,13,05,03,16.10
2008,07,13,05,04,16.10
2008,07,13,05,05,16.10
2008,07,13,05,06,16.10
2008,07,13,05,07,16.10
2008,07,13,05,08,16.00
2008,07,13,05,09,16.00
2008,07,13,05,10,16.00
2008,07,13,05,11,16.00
2008,07,13,05,12,15.90
2008,07,13,05,13,15.90
2008,07,13,05,14,15.90
2008,07,13,05,15,15.90
2008,07,13,05,16,15.90
2008,07,13,05,17,15.90
2008,07,13,05,18,15.90
2008,07,13,05,19,15.90
2008,07,13,05,20,15.80
2008,07,13,05,21,15.80
2008,07,13,05,22,15.80
2008,07,13,05,23,15.80
2008,07,13,05,24,15.80
2008,07,13,05,25,15.80
2008,07,13,05,26,15.80
2008,07,13,05,27,15.80
2008,07,13,05,28,15.80
2008,07,13,05,29,15.80
2008,07,13,05,30,15.70
2008,07,13,05,31,15.70
2008,07,13,05,32,15.70
2008,07,13,05,33,15.70
2008,07,13,05,34,15.70
2008,07,13,05,35,15.70
2008,07,13,05,36,15.70
2008,07,13,05,37,15.70
2008,07,13,05,38,15.60
2008,07,13,05,39,15.60
2008,07,13,05,40,15.60
2008,07,13,05,41,15.60
2008,07,13,05,42,15.60
2008,07,13,05,43,15.60
2008,07,13,05,44,15.60
2008,07,13,05,45,15.50
2008,07,13,05,46,15.50
2008,07,13,05,47,15.50
2008,07,13,05,48,15.50
2008,07,13,05,49,15.50
2008,07,13,05,50,15.50
2008,07,13,05,51,15.60
2008,07,13,05,52,15.60
2008,07,13,05,53,15.60
2008,07,13,05,54,15.70
2008,07,13,05,55,15.70
2008,07,13,05,56,15.70
2008,07,13,05,57,15.70
2008,07,13,05,58,15.70
2008,07,13,05,59,15.70
2008,07,13,06,00,15.70
2008,07,13,06,01,15.80
2008,07,13,06,02,15.80
2008,07,13,06,03,15.80
2008,07,13,06,04,15.80
2008,07,13,06,05,15.80
2008,07,13,06,06,15.80
2008,07,13,06,07,15.80
2008,07,13,06,08,15.80
2008,07,13,06,09,15.80
2008,07,13,06,10,15.80
2008,07,13,06,11,15.80
2008,07,13,06,12,15.80
2008,07,13,06,13,15.90
2008,07,13,06,14,15.90
2008,07,13,06,15,15.90
2008,07,13,06,16,15.90
2008,07,13,06,17,16.00
2008,07,13,06,18,16.00
2008,07,13,06,19,16.00
2008,07,13,06,20,16.00
2008,07,13,06,21,16.10
2008,07,13,06,22,16.10
2008,07,13,06,23,16.10
2008,07,13,06,24,16.20
2008,07,13,06,25,16.20
2008,07,13,06,26,16.30
2008,07,13,06,27,16.30
2008,07,13,06,28,16.40
2008,07,13,06,29,16.40
2008,07,13,06,30,16.40
2008,07,13,06,31,16.50
2008,07,13,06,32,16.50
2008,07,13,06,33,16.60
2008,07,13,06,34,16.60
2008,07,13,06,35,16.60
2008,07,13,06,36,16.60
2008,07,13,06,37,16.70
2008,07,13,06,38,16.70
2008,07,13,06,39,16.70
2008,07,13,06,40,16.80
2008,07,13,06,41,16.80
2008,07,13,06,42,16.80
2008,07,13,06,43,16.90
2008,07,13,06,44,16.90
2008,07,13,06,45,16.90
2008,07,13,06,46,17.00
2008,07,13,06,47,17.00
2008,07,13,06,48,17.10
2008,07,13,06,49,17.10
2008,07,13,06,50,17.10
2008,07,13,06,51,17.10
2008,07,13,06,52,17.20
2008,07,13,06,53,17.20
2008,07,13,06,54,17.20
2008,07,13,06,55,17.20
2008,07,13,06,56,17.30
2008,07,13,06,57,17.30
2008,07,13,06,58,17.30
2008,07,13,06,59,17.30
2008,07,13,07,00,17.40
2008,07,13,07,01,17.40
2008,07,13,07,02,17.40
2008,07,13,07,03,17.40
2008,07,13,07,04,17.40
2008,07,13,07,05,17.40
2008,07,13,07,06,17.40
2008,07,13,07,07,17.40
2008,07,13,07,08,17.40
2008,07,13,07,09,17.50
2008,07,13,07,10,17.50
2008,07,13,07,11,17.50
2008,07,13,07,12,17.60
2008,07,13,07,13,17.60
2008,07,13,07,14,17.60
2008,07,13,07,15,17.60
2008,07,13,07,16,17.70
2008,07,13,07,17,17.70
2008,07,13,07,18,17.70
2008,07,13,07,19,17.70
2008,07,13,07,20,17.70
2008,07,13,07,21,17.80
2008,07,13,07,22,17.80
2008,07,13,07,23,17.80
2008,07,13,07,24,17.80
2008,07,13,07,25,17.90
2008,07,13,07,26,17.90
2008,07,13,07,27,18.00
2008,07,13,07,28,18.00
2008,07,13,07,29,18.00
2008,07,13,07,30,18.10
2008,07,13,07,31,18.10
2008,07,13,07,32,18.20
2008,07,13,07,33,18.20
2008,07,13,07,34,18.20
2008,07,13,07,35,18.20
2008,07,13,07,36,18.30
2008,07,13,07,37,18.30
2008,07,13,07,38,18.30
2008,07,13,07,39,18.30
2008,07,13,07,40,18.30
2008,07,13,07,41,18.30
2008,07,13,07,42,18.40
2008,07,13,07,43,18.40
2008,07,13,07,44,18.40
2008,07,13,07,45,18.40
2008,07,13,07,46,18.40
2008,07,13,07,47,18.40
2008,07,13,07,48,18.40
2008,07,13,07,49,18.40
2008,07,13,07,50,18.40
2008,07,13,07,51,18.40
2008,07,13,07,52,18.40
2008,07,13,07,53,18.40
2008,07,13,07,54,18.40
2008,07,13,07,55,18.40
2008,07,13,07,56,18.40
2008,07,13,07,57,18.40
2008,07,13,07,58,18.40
2008,07,13,07,59,18.50
2008,07,13,08,00,18.50
2008,07,13,08,01,18.60
2008,07,13,08,02,18.60
2008,07,13,08,03,18.60
2008,07,13,08,04,18.70
2008,07,13,08,05,18.70
2008,07,13,08,06,18.80
2008,07,13,08,07,18.90
2008,07,13,08,08,19.00
2008,07,13,08,09,19.00
2008,07,13,08,10,19.10
2008,07,13,08,11,19.30
2008,07,13,08,12,19.40
2008,07,13,08,13,19.50
2008,07,13,08,14,19.60
2008,07,13,08,15,19.70
2008,07,13,08,16,19.90
2008,07,13,08,17,20.00
2008,07,13,08,18,20.00
2008,07,13,08,19,20.00
2008,07,13,08,20,20.00
2008,07,13,08,21,20.10
2008,07,13,08,22,20.10
2008,07,13,08,23,20.10
2008,07,13,08,24,20.00
2008,07,13,08,25,20.00
2008,07,13,08,26,19.90
2008,07,13,08,27,19.80
2008,07,13,08,28,19.80
2008,07,13,08,29,19.90
2008,07,13,08,30,19.90
2008,07,13,08,31,20.00
2008,07,13,08,32,20.00
2008,07,13,08,33,20.00
2008,07,13,08,34,20.10
2008,07,13,08,35,20.20
2008,07,13,08,36,20.20
2008,07,13,08,37,20.30
2008,07,13,08,38,20.30
2008,07,13,08,39,20.30
2008,07,13,08,40,20.30
2008,07,13,08,41,20.30
2008,07,13,08,42,20.20
2008,07,13,08,43,20.20
2008,07,13,08,44,20.20
2008,07,13,08,45,20.30
2008,07,13,08,46,20.40
2008,07,13,08,47,20.40
2008,07,13,08,48,20.50
2008,07,13,08,49,20.40
2008,07,13,08,50,20.40
2008,07,13,08,51,20.30
2008,07,13,08,52,20.40
2008,07,13,08,53,20.40
2008,07,13,08,54,20.40
2008,07,13,08,55,20.40
2008,07,13,08,56,20.30
2008,07,13,08,57,20.30
2008,07,13,08,58,20.30
2008,07,13,08,59,20.40
2008,07,13,09,00,20.40
2008,07,13,09,01,20.50
2008,07,13,09,02,20.50
2008,07,13,09,03,20.50
2008,07,13,09,04,20.50
2008,07,13,09,05,20.60
2008,07,13,09,06,20.60
2008,07,13,09,07,20.70
2008,07,13,09,08,20.70
2008,07,13,09,09,20.80
2008,07,13,09,10,20.80
2008,07,13,09,11,20.80
2008,07,13,09,12,20.80
2008,07,13,09,13,20.80
2008,07,13,09,14,20.80
2008,07,13,09,15,20.80
2008,07,13,09,16,20.80
2008,07,13,09,17,20.80
2008,07,13,09,18,20.90
2008,07,13,09,19,20.90
2008,07,13,09,20,21.00
2008,07,13,09,21,21.10
2008,07,13,09,22,21.20
2008,07,13,09,23,21.30
2008,07,13,09,24,21.30
2008,07,13,09,25,21.40
2008,07,13,09,26,21.50
2008,07,13,09,27,21.50
2008,07,13,09,28,21.50
2008,07,13,09,29,21.40
2008,07,13,09,30,21.50
2008,07,13,09,31,21.50
2008,07,13,09,32,21.50
2008,07,13,09,33,21.40
2008,07,13,09,34,21.30
2008,07,13,09,35,21.30
2008,07,13,09,36,21.30
2008,07,13,09,37,21.40
2008,07,13,09,38,21.40
2008,07,13,09,39,21.50
2008,07,13,09,40,21.50
2008,07,13,09,41,21.60
2008,07,13,09,42,21.60
2008,07,13,09,43,21.60
2008,07,13,09,44,21.60
2008,07,13,09,45,21.60
2008,07,13,09,46,21.50
2008,07,13,09,47,21.30
2008,07,13,09,48,21.30
2008,07,13,09,49,21.30
2008,07,13,09,50,21.40
2008,07,13,09,51,21.50
2008,07,13,09,52,21.60
2008,07,13,09,53,21.60
2008,07,13,09,54,21.70
2008,07,13,09,55,21.70
2008,07,13,09,56,21.70
2008,07,13,09,57,21.70
2008,07,13,09,58,21.50
2008,07,13,09,59,21.20
2008,07,13,10,00,20.90
2008,07,13,10,01,20.80
2008,07,13,10,02,20.70
2008,07,13,10,03,20.60
2008,07,13,10,04,20.40
2008,07,13,10,05,20.30
2008,07,13,10,06,20.30
2008,07,13,10,07,20.30
2008,07,13,10,08,20.30
2008,07,13,10,09,20.30
2008,07,13,10,10,20.30
2008,07,13,10,11,20.30
2008,07,13,10,12,20.30
2008,07,13,10,13,20.40
2008,07,13,10,14,20.50
2008,07,13,10,15,20.60
2008,07,13,10,16,20.60
2008,07,13,10,17,20.60
2008,07,13,10,18,20.50
2008,07,13,10,19,20.30
2008,07,13,10,20,20.30
2008,07,13,10,21,20.30
2008,07,13,10,22,20.30
2008,07,13,10,23,20.30
2008,07,13,10,24,20.20
2008,07,13,10,25,20.20
2008,07,13,10,26,20.10
2008,07,13,10,27,20.10
2008,07,13,10,28,20.00
2008,07,13,10,29,20.10
2008,07,13,10,30,20.10
2008,07,13,10,31,20.20
2008,07,13,10,32,20.30
2008,07,13,10,33,20.30
2008,07,13,10,34,20.40
2008,07,13,10,35,20.50
2008,07,13,10,36,20.50
2008,07,13,10,37,20.60
2008,07,13,10,38,20.50
2008,07,13,10,39,20.60
2008,07,13,10,40,20.50
2008,07,13,10,41,20.40
2008,07,13,10,42,20.40
2008,07,13,10,43,20.30
2008,07,13,10,44,20.20
2008,07,13,10,45,20.00
2008,07,13,10,46,19.70
2008,07,13,10,47,19.50
2008,07,13,10,48,19.40
2008,07,13,10,49,19.40
2008,07,13,10,50,19.30
2008,07,13,10,51,19.40
2008,07,13,10,52,19.30
2008,07,13,10,53,19.30
2008,07,13,10,54,19.40
2008,07,13,10,55,19.50
2008,07,13,10,56,19.50
2008,07,13,10,57,19.60
2008,07,13,10,58,19.70
2008,07,13,10,59,19.80
2008,07,13,11,00,20.00
2008,07,13,11,01,20.00
2008,07,13,11,02,20.10
2008,07,13,11,03,20.10
2008,07,13,11,04,20.20
2008,07,13,11,05,20.10
2008,07,13,11,06,20.00
2008,07,13,11,07,19.90
2008,07,13,11,08,19.80
2008,07,13,11,09,19.70
2008,07,13,11,10,19.70
2008,07,13,11,11,19.70
2008,07,13,11,12,19.70
2008,07,13,11,13,19.70
2008,07,13,11,14,19.70
2008,07,13,11,15,19.80
2008,07,13,11,16,19.90
2008,07,13,11,17,19.90
2008,07,13,11,18,20.00
2008,07,13,11,19,20.00
2008,07,13,11,20,20.10
2008,07,13,11,21,20.20
2008,07,13,11,22,20.10
2008,07,13,11,23,20.00
2008,07,13,11,24,20.00
2008,07,13,11,25,19.90
2008,07,13,11,26,19.80
2008,07,13,11,27,19.80
2008,07,13,11,28,19.80
2008,07,13,11,29,19.90
2008,07,13,11,30,20.10
2008,07,13,11,31,20.20
2008,07,13,11,32,20.40
2008,07,13,11,33,20.50
2008,07,13,11,34,20.60
2008,07,13,11,35,20.80
2008,07,13,11,36,20.90
2008,07,13,11,37,20.90
2008,07,13,11,38,20.80
2008,07,13,11,39,20.80
2008,07,13,11,40,20.90
2008,07,13,11,41,21.00
2008,07,13,11,42,21.10
2008,07,13,11,43,21.10
2008,07,13,11,44,21.00
2008,07,13,11,45,20.80
2008,07,13,11,46,20.60
2008,07,13,11,47,20.40
2008,07,13,11,48,20.30
2008,07,13,11,49,20.20
2008,07,13,11,50,20.20
2008,07,13,11,51,20.20
2008,07,13,11,52,20.20
2008,07,13,11,53,20.20
2008,07,13,11,54,20.20
2008,07,13,11,55,20.30
2008,07,13,11,56,20.40
2008,07,13,11,57,20.50
2008,07,13,11,58,20.60
2008,07,13,11,59,20.60
2008,07,13,12,00,20.60
2008,07,13,12,01,20.60
2008,07,13,12,02,20.60
2008,07,13,12,03,20.50
2008,07,13,12,04,20.30
2008,07,13,12,05,20.20
2008,07,13,12,06,20.10
2008,07,13,12,07,20.20
2008,07,13,12,08,20.30
2008,07,13,12,09,20.30
2008,07,13,12,10,20.00
2008,07,13,12,11,19.80
2008,07,13,12,12,19.70
2008,07,13,12,13,19.70
2008,07,13,12,14,19.70
2008,07,13,12,15,19.80
2008,07,13,12,16,19.80
2008,07,13,12,17,19.80
2008,07,13,12,18,19.80
2008,07,13,12,19,19.70
2008,07,13,12,20,19.70
2008,07,13,12,21,19.80
2008,07,13,12,22,19.80
2008,07,13,12,23,19.70
2008,07,13,12,24,19.60
2008,07,13,12,25,19.60
2008,07,13,12,26,19.70
2008,07,13,12,27,19.90
2008,07,13,12,28,20.00
2008,07,13,12,29,20.10
2008,07,13,12,30,20.20
2008,07,13,12,31,20.30
2008,07,13,12,32,20.40
2008,07,13,12,33,20.30
2008,07,13,12,34,20.10
2008,07,13,12,35,20.00
2008,07,13,12,36,20.00
2008,07,13,12,37,20.00
2008,07,13,12,38,20.10
2008,07,13,12,39,20.10
2008,07,13,12,40,20.00
2008,07,13,12,41,19.90
2008,07,13,12,42,19.90
2008,07,13,12,43,20.00
2008,07,13,12,44,20.00
2008,07,13,12,45,20.20
2008,07,13,12,46,20.40
2008,07,13,12,47,20.50
2008,07,13,12,48,20.70
2008,07,13,12,49,20.80
2008,07,13,12,50,20.90
2008,07,13,12,51,21.10
2008,07,13,12,52,21.30
2008,07,13,12,53,21.40
2008,07,13,12,54,21.50
2008,07,13,12,55,21.60
2008,07,13,12,56,21.50
2008,07,13,12,57,21.30
2008,07,13,12,58,21.30
2008,07,13,12,59,21.40
2008,07,13,13,00,21.50
2008,07,13,13,01,21.50
2008,07,13,13,02,21.60
2008,07,13,13,03,21.60
2008,07,13,13,04,21.50
2008,07,13,13,05,21.50
2008,07,13,13,06,21.50
2008,07,13,13,07,21.50
2008,07,13,13,08,21.60
2008,07,13,13,09,21.70
2008,07,13,13,10,21.70
2008,07,13,13,11,21.60
2008,07,13,13,12,21.60
2008,07,13,13,13,21.60
2008,07,13,13,14,21.50
2008,07,13,13,15,21.40
2008,07,13,13,16,21.20
2008,07,13,13,17,21.20
2008,07,13,13,18,21.30
2008,07,13,13,19,21.40
2008,07,13,13,20,21.40
2008,07,13,13,21,21.30
2008,07,13,13,22,21.30
2008,07,13,13,23,21.20
2008,07,13,13,24,21.20
2008,07,13,13,25,21.30
2008,07,13,13,26,21.50
2008,07,13,13,27,21.60
2008,07,13,13,28,21.60
2008,07,13,13,29,21.60
2008,07,13,13,30,21.70
2008,07,13,13,31,21.90
2008,07,13,13,32,22.00
2008,07,13,13,33,22.10
2008,07,13,13,34,22.10
2008,07,13,13,35,22.10
2008,07,13,13,36,22.20
2008,07,13,13,37,22.30
2008,07,13,13,38,22.40
2008,07,13,13,39,22.40
2008,07,13,13,40,22.40
2008,07,13,13,41,22.30
2008,07,13,13,42,22.30
2008,07,13,13,43,22.30
2008,07,13,13,44,22.30
2008,07,13,13,45,22.30
2008,07,13,13,46,22.20
2008,07,13,13,47,22.20
2008,07,13,13,48,22.20
2008,07,13,13,49,22.30
2008,07,13,13,50,22.40
2008,07,13,13,51,22.30
2008,07,13,13,52,22.40
2008,07,13,13,53,22.50
2008,07,13,13,54,22.60
2008,07,13,13,55,22.70
2008,07,13,13,56,22.80
2008,07,13,13,57,22.80
2008,07,13,13,58,22.90
2008,07,13,13,59,23.00
2008,07,13,14,00,23.00
2008,07,13,14,01,23.20
2008,07,13,14,02,23.20
2008,07,13,14,03,23.30
2008,07,13,14,04,23.10
2008,07,13,14,05,22.80
2008,07,13,14,06,22.50
2008,07,13,14,07,22.30
2008,07,13,14,08,22.30
2008,07,13,14,09,22.40
2008,07,13,14,10,22.40
2008,07,13,14,11,22.40
2008,07,13,14,12,22.50
2008,07,13,14,13,22.70
2008,07,13,14,14,22.90
2008,07,13,14,15,23.00
2008,07,13,14,16,23.00
2008,07,13,14,17,23.10
2008,07,13,14,18,23.20
2008,07,13,14,19,23.20
2008,07,13,14,20,23.20
2008,07,13,14,21,23.30
2008,07,13,14,22,23.30
2008,07,13,14,23,23.20
2008,07,13,14,24,23.10
2008,07,13,14,25,23.10
2008,07,13,14,26,23.10
2008,07,13,14,27,23.10
2008,07,13,14,28,23.20
2008,07,13,14,29,23.20
2008,07,13,14,30,23.30
2008,07,13,14,31,23.30
2008,07,13,14,32,23.20
2008,07,13,14,33,23.30
2008,07,13,14,34,23.40
2008,07,13,14,35,23.50
2008,07,13,14,36,23.60
2008,07,13,14,37,23.70
2008,07,13,14,38,23.80
2008,07,13,14,39,24.00
2008,07,13,14,40,24.20
2008,07,13,14,41,24.40
2008,07,13,14,42,24.60
2008,07,13,14,43,24.70
2008,07,13,14,44,24.90
2008,07,13,14,45,25.20
2008,07,13,14,46,25.40
2008,07,13,14,47,25.70
2008,07,13,14,48,26.00
2008,07,13,14,49,26.20
2008,07,13,14,50,26.40
2008,07,13,14,51,26.50
2008,07,13,14,52,26.70
2008,07,13,14,53,26.80
2008,07,13,14,54,26.80
2008,07,13,14,55,26.90
2008,07,13,14,56,27.10
2008,07,13,14,57,27.20
2008,07,13,14,58,27.30
2008,07,13,14,59,27.40
2008,07,13,15,00,27.40
2008,07,13,15,01,27.50
2008,07,13,15,02,27.60
2008,07,13,15,03,27.70
2008,07,13,15,04,27.80
2008,07,13,15,05,27.80
2008,07,13,15,06,27.70
2008,07,13,15,07,27.70
2008,07,13,15,08,27.70
2008,07,13,15,09,27.70
2008,07,13,15,10,27.60
2008,07,13,15,11,27.50
2008,07,13,15,12,27.40
2008,07,13,15,13,27.30
2008,07,13,15,14,27.20
2008,07,13,15,15,27.20
2008,07,13,15,16,27.20
2008,07,13,15,17,27.20
2008,07,13,15,18,27.20
2008,07,13,15,19,27.20
2008,07,13,15,20,27.20
2008,07,13,15,21,27.20
2008,07,13,15,22,27.20
2008,07,13,15,23,27.20
2008,07,13,15,24,27.20
2008,07,13,21,54,16.10
2008,07,13,21,55,16.10
2008,07,13,21,56,16.10
2008,07,13,21,57,16.00
2008,07,13,21,58,16.00
2008,07,13,21,59,16.00
2008,07,13,22,00,15.90
2008,07,13,22,01,15.90
2008,07,13,22,02,15.80
2008,07,13,22,03,15.80
2008,07,13,22,04,15.70
2008,07,13,22,05,15.60
2008,07,13,22,06,15.50
2008,07,13,22,07,15.40
2008,07,13,22,08,15.30
2008,07,13,22,09,15.20
2008,07,13,22,10,15.00
2008,07,13,22,11,15.00
2008,07,13,22,12,15.00
2008,07,13,22,13,15.00
2008,07,13,22,14,15.00
2008,07,13,22,15,14.80
2008,07,13,22,16,14.80
2008,07,13,22,17,14.70
2008,07,13,22,18,14.60
2008,07,13,22,19,14.60
2008,07,13,22,20,14.50
2008,07,13,22,21,14.40
2008,07,13,22,22,14.40
2008,07,13,22,23,14.40
2008,07,13,22,24,14.30
2008,07,13,22,25,14.30
2008,07,13,22,26,14.20
2008,07,13,22,27,14.10
2008,07,13,22,28,14.10
2008,07,13,22,29,14.10
2008,07,13,22,30,14.00
2008,07,13,22,31,14.00
2008,07,13,22,32,13.90
2008,07,13,22,33,13.90
2008,07,13,22,34,13.90
2008,07,13,22,35,13.80
2008,07,13,22,36,13.80
2008,07,13,22,37,13.70
2008,07,13,22,38,13.70
2008,07,13,22,39,13.60
2008,07,13,22,40,13.60
2008,07,13,22,41,13.50
2008,07,13,22,42,13.40
2008,07,13,22,43,13.40
2008,07,13,22,44,13.40
2008,07,13,22,45,13.30
2008,07,13,22,46,13.30
2008,07,13,22,47,13.30
2008,07,13,22,48,13.20
2008,07,13,22,49,13.20
2008,07,13,22,50,13.10
2008,07,13,22,51,13.10
2008,07,13,22,52,13.00
2008,07,13,22,53,12.90
2008,07,13,22,54,12.90
2008,07,13,22,55,12.80
2008,07,13,22,56,12.70
2008,07,13,22,57,12.60
2008,07,13,22,58,12.50
2008,07,13,22,59,12.40
2008,07,13,23,00,12.30
2008,07,13,23,01,12.20
2008,07,13,23,02,12.20
2008,07,13,23,03,12.10
2008,07,13,23,04,12.00
2008,07,13,23,05,12.00
2008,07,13,23,06,11.90
2008,07,13,23,07,11.80
2008,07,13,23,08,11.80
2008,07,13,23,09,11.70
2008,07,13,23,10,11.70
2008,07,13,23,11,11.60
2008,07,13,23,12,11.60
2008,07,13,23,13,11.50
2008,07,13,23,14,11.50
2008,07,13,23,15,11.40
2008,07,13,23,16,11.40
2008,07,13,23,17,11.30
2008,07,13,23,18,11.30
2008,07,13,23,19,11.30
2008,07,13,23,20,11.20
2008,07,13,23,21,11.20
2008,07,13,23,22,11.20
2008,07,13,23,23,11.20
2008,07,13,23,24,11.20
2008,07,13,23,25,11.10
2008,07,13,23,26,11.10
2008,07,13,23,27,11.10
2008,07,13,23,28,11.00
2008,07,13,23,29,11.00
2008,07,13,23,30,11.00
2008,07,13,23,31,10.90
2008,07,13,23,32,10.90
2008,07,13,23,33,10.90
2008,07,13,23,34,10.90
2008,07,13,23,35,10.80
2008,07,13,23,36,10.80
2008,07,13,23,37,10.80
2008,07,13,23,38,10.80
2008,07,13,23,39,10.80
2008,07,13,23,40,10.80
2008,07,13,23,41,10.80
2008,07,13,23,42,10.80
2008,07,13,23,43,10.80
2008,07,13,23,44,10.80
2008,07,13,23,45,10.80
2008,07,13,23,46,10.80
2008,07,13,23,47,10.80
2008,07,13,23,48,10.80